Location: Chanteloup
(48.8560°N, 2.7390°E)
Time: 23:08:30
(UTC+00:00)

Cosmos 2322 Rocket - Pass Details

Date: 07 June 2022
Orbit: 833 x 851 km, 71.0° (Epoch: 06 July)

Event Time Altitude Azimuth Distance (km) Brightness Sun altitude
Rises 22:44:36 0° 281° (WNW) 3,381 5.7 -16.9°
Reaches altitude 10° 22:49:03 10° 314° (NW) 2,452 5.5 -17.1°
Maximum altitude 22:50:52 11° 334° (NNW) 2,350 5.7 -17.2°
Drops below altitude 10° 22:52:42 10° 353° (N) 2,457 5.9 -17.3°
Sets 22:57:12 0° 26° (NNE) 3,399 6.2 -17.4°
